WV5G-13 Weather Reports


Display with metric or nautical units.
time (UTC)temp
F
wind
direction
speed
MPH
gust
MPH
rain 1hr
in
rain 24hr
in
rain mn
in
humidity
%
barometer
mb
20260904232433 96 177 6.0 8.0 0.00 0.00 0.00 24 1010.8
20260904231929 97 170 3.0 6.0 0.00 0.00 0.00 24 1010.8
20260904231424 97 149 8.0 10.0 0.00 0.00 0.00 24 1010.9
20260904230919 97 138 7.0 11.0 0.00 0.00 0.00 24 1010.9
20260904230418 97 160 4.0 8.0 0.00 0.00 0.00 24 1010.9
20260904225913 97 147 7.0 11.0 0.00 0.00 0.00 23 1011.0
20260904225411 98 204 5.0 12.0 0.00 0.00 0.00 24 1011.1
20260904224911 98 163 6.0 9.0 0.00 0.00 0.00 23 1011.1
20260904224407 98 148 6.0 10.0 0.00 0.00 0.00 23 1010.9
20260904223901 98 147 7.0 11.0 0.00 0.00 0.00 23 1011.2
20260904223400 97 138 7.0 14.0 0.00 0.00 0.00 24 1011.2
20260904222856 97 160 4.0 13.0 0.00 0.00 0.00 24 1011.0
20260904222351 97 168 5.0 8.0 0.00 0.00 0.00 24 1011.2
20260904221851 96 160 6.0 10.0 0.00 0.00 0.00 24 1011.3
20260904221346 95 158 11.0 13.0 0.00 0.00 0.00 24 1011.5
20260904220841 95 173 6.0 13.0 0.00 0.00 0.00 25 1011.6
20260904220340 95 170 5.0 9.0 0.00 0.00 0.00 25 1011.3
20260904215836 95 162 6.0 11.0 0.00 0.00 0.00 25 1011.3
20260904215331 95 186 3.0 9.0 0.00 0.00 0.00 25 1011.1
20260904214827 96 154 12.0 13.0 0.00 0.00 0.00 25 1011.5
20260904214322 96 220 5.0 12.0 0.00 0.00 0.00 25 1011.5
20260904213820 97 189 6.0 11.0 0.00 0.00 0.00 26 1011.7
20260904213316 99 180 11.0 20.0 0.00 0.00 0.00 25 1011.6
20260904212812 99 206 3.0 12.0 0.00 0.00 0.00 24 1011.8
20260904212312 99 189 11.0 15.0 0.00 0.00 0.00 24 1011.7
20260904211807 98 213 9.0 16.0 0.00 0.00 0.00 23 1011.6
20260904211301 98 178 9.0 12.0 0.00 0.00 0.00 24 1011.3
20260904210751 98 220 6.0 16.0 0.00 0.00 0.00 25 1011.5
20260904210250 98 171 9.0 15.0 0.00 0.00 0.00 26 1011.6
20260904205747 97 214 6.0 16.0 0.00 0.00 0.00 26 1011.6
20260904205243 98 211 10.0 16.0 0.00 0.00 0.00 25 1011.9
20260904204739 98 219 11.0 16.0 0.00 0.00 0.00 25 1011.9
20260904204235 97 213 3.0 5.0 0.00 0.00 0.00 26 1011.7
20260904203731 96 256 4.0 7.0 0.00 0.00 0.00 26 1011.8
20260904203227 97 219 8.0 16.0 0.00 0.00 0.00 26 1012.0
20260904202723 98 154 3.0 4.0 0.00 0.00 0.00 25 1011.9
20260904202219 99 213 6.0 11.0 0.00 0.00 0.00 25 1012.1
20260904201714 100 212 6.0 12.0 0.00 0.00 0.00 25 1012.1
20260904201214 99 233 6.0 8.0 0.00 0.00 0.00 24 1012.2
20260904200708 99 218 9.0 12.0 0.00 0.00 0.00 25 1012.3
20260904200203 99 230 3.0 13.0 0.00 0.00 0.00 25 1012.2
20260904195702 99 228 0.0 3.0 0.00 0.00 0.00 24 1012.3
20260904195156 98 274 4.0 6.0 0.00 0.00 0.00 27 1012.5
20260904194650 98 215 2.0 5.0 0.00 0.00 0.00 26 1012.7
20260904194150 97 241 9.0 11.0 0.00 0.00 0.00 26 1012.6
20260904193645 97 215 13.0 16.0 0.00 0.00 0.00 26 1012.3
20260904193142 98 190 12.0 13.0 0.00 0.00 0.00 26 1012.6
20260904192641 97 206 3.0 6.0 0.00 0.00 0.00 27 1012.6
20260904192137 98 228 6.0 10.0 0.00 0.00 0.00 27 1012.8
20260904191634 97 152 5.0 8.0 0.00 0.00 0.00 27 1012.9
20260904191130 98 251 3.0 4.0 0.00 0.00 0.00 27 1013.0
20260904190625 97 206 3.0 7.0 0.00 0.00 0.00 28 1013.1
20260904190121 97 166 4.0 7.0 0.00 0.00 0.00 29 1013.2
20260904185618 97 192 10.0 11.0 0.00 0.00 0.00 28 1012.9
20260904185113 96 257 5.0 10.0 0.00 0.00 0.00 28 1013.2
20260904184611 96 243 8.0 8.0 0.00 0.00 0.00 30 1013.1
20260904184107 96 244 5.0 9.0 0.00 0.00 0.00 30 1013.2
20260904183603 96 199 6.0 8.0 0.00 0.00 0.00 29 1013.2
20260904183057 96 250 4.0 6.0 0.00 0.00 0.00 29 1013.3
20260904182552 96 202 8.0 9.0 0.00 0.00 0.00 29 1013.6
20260904182047 95 247 10.0 16.0 0.00 0.00 0.00 30 1013.2
20260904181543 95 225 4.0 7.0 0.00 0.00 0.00 31 1013.7
20260904181042 96 205 11.0 13.0 0.00 0.00 0.00 30 1013.5
20260904180537 94 259 5.0 10.0 0.00 0.00 0.00 30 1013.7
20260904180032 95 230 3.0 7.0 0.00 0.00 0.00 32 1013.8
20260904175526 95 253 5.0 5.0 0.00 0.00 0.00 31 1013.7
20260904175025 94 214 9.0 12.0 0.00 0.00 0.00 30 1013.7
20260904174520 94 245 8.0 13.0 0.00 0.00 0.00 32 1013.8
20260904174017 94 244 9.0 11.0 0.00 0.00 0.00 32 1013.9
20260904173511 95 223 13.0 14.0 0.00 0.00 0.00 31 1014.0
20260904173007 94 217 3.0 8.0 0.00 0.00 0.00 31 1013.9
20260904172502 94 212 8.0 10.0 0.00 0.00 0.00 32 1013.9
20260904172001 94 176 4.0 8.0 0.00 0.00 0.00 32 1014.0
20260904171457 94 179 5.0 11.0 0.00 0.00 0.00 31 1014.0
20260904170953 93 253 5.0 7.0 0.00 0.00 0.00 32 1014.1
20260904170447 92 239 8.0 12.0 0.00 0.00 0.00 34 1014.0
20260904165943 92 227 7.0 8.0 0.00 0.00 0.00 34 1014.0
20260904165442 93 207 5.0 7.0 0.00 0.00 0.00 34 1013.9
20260904164942 91 222 8.0 9.0 0.00 0.00 0.00 35 1013.9
20260904164436 91 227 9.0 10.0 0.00 0.00 0.00 35 1014.0
20260904163932 91 238 10.0 14.0 0.00 0.00 0.00 35 1014.1
20260904163431 90 249 5.0 7.0 0.00 0.00 0.00 37 1014.0
20260904162926 90 248 8.0 11.0 0.00 0.00 0.00 36 1014.0
20260904162421 90 239 4.0 8.0 0.00 0.00 0.00 38 1014.0
20260904161917 89 261 4.0 9.0 0.00 0.00 0.00 38 1014.1
20260904161412 89 241 7.0 13.0 0.00 0.00 0.00 38 1014.2
20260904160908 89 256 3.0 11.0 0.00 0.00 0.00 37 1014.0
20260904160403 89 239 5.0 8.0 0.00 0.00 0.00 40 1013.9
20260904155857 88 249 7.0 12.0 0.00 0.00 0.00 40 1014.2
20260904155352 87 247 5.0 10.0 0.00 0.00 0.00 41 1013.9
20260904154850 87 249 4.0 11.0 0.00 0.00 0.00 43 1014.0
20260904154345 85 227 8.0 9.0 0.00 0.00 0.00 44 1013.8
20260904153841 85 249 7.0 11.0 0.00 0.00 0.00 45 1013.7
20260904153336 84 238 9.0 10.0 0.00 0.00 0.00 45 1014.0
20260904152832 84 244 7.0 11.0 0.00 0.00 0.00 45 1013.9
20260904152327 84 247 6.0 9.0 0.00 0.00 0.00 46 1013.6
20260904151822 84 232 6.0 8.0 0.00 0.00 0.00 47 1013.7
20260904151321 83 228 6.0 9.0 0.00 0.00 0.00 47 1013.9
20260904150817 83 237 4.0 7.0 0.00 0.00 0.00 48 1013.9
20260904150312 82 230 6.0 6.0 0.00 0.00 0.00 49 1013.9
20260904145810 82 243 3.0 6.0 0.00 0.00 0.00 50 1013.8
20260904145306 82 265 2.0 5.0 0.00 0.00 0.00 51 1013.8
20260904144801 82 241 5.0 5.0 0.00 0.00 0.00 51 1013.8
20260904144257 81 259 2.0 5.0 0.00 0.00 0.00 52 1013.8
20260904143752 80 194 3.0 6.0 0.00 0.00 0.00 52 1013.9
20260904143249 80 183 1.0 5.0 0.00 0.00 0.00 53 1013.8
20260904142745 80 244 2.0 5.0 0.00 0.00 0.00 55 1014.1
20260904142240 79 182 2.0 3.0 0.00 0.00 0.00 56 1013.9
20260904141735 78 198 1.0 4.0 0.00 0.00 0.00 55 1013.9
20260904141231 77 182 3.0 4.0 0.00 0.00 0.00 57 1013.9
20260904140726 77 109 2.0 2.0 0.00 0.00 0.00 64 1013.8
20260904140221 77 60 2.0 2.0 0.00 0.00 0.00 62 1013.7
20260904135720 76 65 1.0 2.0 0.00 0.00 0.00 62 1013.7
20260904135216 76 326 0.0 1.0 0.00 0.00 0.00 62 1013.9
20260904134711 76 251 2.0 3.0 0.00 0.00 0.00 62 1013.9
20260904134211 75 245 2.0 4.0 0.00 0.00 0.00 63 1014.0
20260904133705 74 250 2.0 4.0 0.00 0.00 0.00 64 1013.7
20260904133202 73 230 3.0 5.0 0.00 0.00 0.00 67 1013.8
20260904132701 72 266 3.0 4.0 0.00 0.00 0.00 71 1013.8
20260904132156 70 233 2.0 3.0 0.00 0.00 0.00 74 1013.9
20260904131655 69 85 2.0 3.0 0.00 0.00 0.00 77 1013.5
20260904131151 69 62 2.0 3.0 0.00 0.00 0.00 76 1013.6
20260904130651 70 106 2.0 3.0 0.00 0.00 0.00 73 1013.3
20260904130150 70 147 0.0 1.0 0.00 0.00 0.00 73 1013.3
20260904125647 70 254 0.0 3.0 0.00 0.00 0.00 72 1013.5
20260904125142 70 222 3.0 5.0 0.00 0.00 0.00 72 1013.5
20260904124637 70 230 4.0 4.0 0.00 0.00 0.00 72 1013.3
20260904124133 70 258 2.0 3.0 0.00 0.00 0.00 72 1013.1
20260904123633 70 228 2.0 2.0 0.00 0.00 0.00 72 1013.0
20260904123129 70 251 0.0 3.0 0.00 0.00 0.00 73 1013.2
20260904122623 70 81 2.0 3.0 0.00 0.00 0.00 73 1013.2
20260904122118 71 71 2.0 3.0 0.00 0.00 0.00 72 1013.0
20260904121614 71 81 1.0 3.0 0.00 0.00 0.00 72 1013.1
20260904121109 71 286 1.0 2.0 0.00 0.00 0.00 72 1013.1
20260904120605 71 138 0.0 2.0 0.00 0.00 0.00 72 1012.8
20260904115555 71 262 4.0 5.0 0.00 0.00 0.00 72 1012.7
20260904115050 71 259 4.0 5.0 0.00 0.00 0.00 71 1012.9
20260904114545 72 231 4.0 9.0 0.00 0.00 0.00 69 1012.9
20260904114044 72 236 3.0 4.0 0.00 0.00 0.00 71 1012.6
20260904113539 72 250 3.0 6.0 0.00 0.00 0.00 71 1012.9
20260904113033 72 250 2.0 5.0 0.00 0.00 0.00 72 1013.0
20260904112528 71 235 5.0 5.0 0.00 0.00 0.00 72 1012.8
20260904112024 71 210 3.0 6.0 0.00 0.00 0.00 73 1012.5
20260904111520 71 249 4.0 5.0 0.00 0.00 0.00 73 1012.7
20260904111015 71 255 4.0 4.0 0.00 0.00 0.00 74 1012.8
20260904110514 70 262 3.0 5.0 0.00 0.00 0.00 75 1012.7
20260904110011 70 269 4.0 5.0 0.00 0.00 0.00 77 1012.7
20260904105504 71 269 4.0 5.0 0.00 0.00 0.00 76 1012.8
20260904104959 71 260 3.0 5.0 0.00 0.00 0.00 76 1012.6
20260904104454 71 247 4.0 4.0 0.00 0.00 0.00 76 1012.5
20260904103950 71 322 2.0 3.0 0.00 0.00 0.00 76 1012.5
20260904103446 71 219 1.0 3.0 0.00 0.00 0.00 77 1012.7
20260904102942 70 238 1.0 3.0 0.00 0.00 0.00 77 1012.5
20260904102437 71 200 1.0 3.0 0.00 0.00 0.00 77 1012.7
20260904101927 71 197 0.0 3.0 0.00 0.00 0.00 77 1012.3
20260904101424 71 172 0.0 3.0 0.00 0.00 0.00 76 1012.2
20260904100919 71 201 2.0 3.0 0.00 0.00 0.00 76 1012.6
20260904100415 71 155 2.0 5.0 0.00 0.00 0.00 75 1012.3
20260904095909 71 215 1.0 4.0 0.00 0.00 0.00 75 1012.2
20260904095404 71 136 4.0 5.0 0.00 0.00 0.00 74 1012.2
20260904094859 71 132 4.0 6.0 0.00 0.00 0.00 73 1012.1
20260904094354 71 142 3.0 4.0 0.00 0.00 0.00 73 1011.9
20260904093850 71 132 1.0 5.0 0.00 0.00 0.00 73 1012.1
20260904093350 70 288 0.0 3.0 0.00 0.00 0.00 75 1012.1
20260904092845 69 165 0.0 1.0 0.00 0.00 0.00 77 1012.1
20260904092342 70 280 0.0 4.0 0.00 0.00 0.00 76 1012.1
20260904091838 69 121 2.0 3.0 0.00 0.00 0.00 77 1012.1
20260904091333 69 120 0.0 1.0 0.00 0.00 0.00 76 1012.2
20260904090828 69 129 0.0 2.0 0.00 0.00 0.00 76 1012.3
20260904090324 69 159 0.0 1.0 0.00 0.00 0.00 78 1012.2
20260904085818 68 261 0.0 1.0 0.00 0.00 0.00 79 1012.1
20260904085313 68 269 0.0 0.0 0.00 0.00 0.00 79 1012.2
20260904084808 68 100 0.0 2.0 0.00 0.00 0.00 78 1012.2
20260904084303 68 97 2.0 3.0 0.00 0.00 0.00 79 1012.2
20260904083759 68 131 3.0 3.0 0.00 0.00 0.00 78 1012.2
20260904083256 68 298 1.0 2.0 0.00 0.00 0.00 78 1012.3
20260904082751 68 99 0.0 0.0 0.00 0.00 0.00 79 1012.5
20260904082246 68 269 0.0 2.0 0.00 0.00 0.00 80 1012.5
20260904081741 67 230 0.0 3.0 0.00 0.00 0.00 80 1012.5
20260904081236 67 59 2.0 3.0 0.00 0.00 0.00 80 1012.5
20260904080732 68 34 3.0 5.0 0.00 0.00 0.00 77 1012.2
20260904080222 69 3 1.0 4.0 0.00 0.00 0.00 75 1012.2
20260904075719 71 115 1.0 3.0 0.00 0.00 0.00 70 1012.5
20260904075213 70 133 1.0 2.0 0.00 0.00 0.00 71 1012.3
20260904074712 70 88 1.0 2.0 0.00 0.00 0.00 71 1012.2
20260904074207 70 314 0.0 2.0 0.00 0.00 0.00 71 1012.2
20260904073703 70 240 1.0 1.0 0.00 0.00 0.00 71 1012.2
20260904073158 70 145 0.0 2.0 0.00 0.00 0.00 71 1012.2
20260904072654 70 124 0.0 0.0 0.00 0.00 0.00 71 1012.0
20260904072148 70 23 0.0 1.0 0.00 0.00 0.00 71 1012.7
20260904071644 70 113 0.0 2.0 0.00 0.00 0.00 70 1012.6
20260904071139 70 97 0.0 2.0 0.00 0.00 0.00 70 1012.3
20260904070638 70 152 0.0 2.0 0.00 0.00 0.00 72 1012.5
20260904070133 70 237 0.0 3.0 0.00 0.00 0.00 71 1012.7
20260904065633 71 294 2.0 3.0 0.00 0.00 0.00 69 1012.6
20260904065130 71 164 0.0 3.0 0.00 0.00 0.00 68 1012.8
20260904064625 72 166 1.0 3.0 0.00 0.00 0.00 67 1012.5
20260904064125 72 209 1.0 4.0 0.00 0.00 0.00 67 1012.9
20260904063621 72 146 3.0 4.0 0.00 0.00 0.00 66 1012.7
20260904063116 73 153 2.0 4.0 0.00 0.00 0.00 65 1012.6
20260904062613 73 149 5.0 5.0 0.00 0.00 0.00 63 1012.9
20260904062108 73 165 5.0 6.0 0.00 0.00 0.00 63 1012.7
20260904061603 73 173 3.0 6.0 0.00 0.00 0.00 63 1012.7
20260904061100 73 135 3.0 5.0 0.00 0.00 0.00 64 1012.7
20260904060555 73 186 3.0 4.0 0.00 0.00 0.00 65 1012.6
20260904060051 73 226 2.0 5.0 0.00 0.00 0.00 65 1012.7
20260904055546 73 202 0.0 4.0 0.00 0.00 0.00 64 1012.7
20260904055041 74 106 2.0 4.0 0.00 0.00 0.00 63 1012.8
20260904054537 74 154 4.0 5.0 0.00 0.00 0.00 63 1012.7
20260904054033 74 115 2.0 5.0 0.00 0.00 0.00 64 1012.9
20260904053532 74 131 7.0 7.0 0.00 0.00 0.00 62 1012.8
20260904053028 75 150 5.0 11.0 0.00 0.00 0.00 61 1012.8
20260904052524 75 136 2.0 10.0 0.00 0.00 0.00 61 1012.9
20260904052020 75 126 9.0 12.0 0.00 0.00 0.00 61 1012.7
20260904051517 75 127 7.0 12.0 0.00 0.00 0.00 61 1012.6
20260904051015 75 132 9.0 13.0 0.00 0.00 0.00 60 1012.6
20260904050512 76 130 8.0 12.0 0.00 0.00 0.00 59 1012.8
20260904050008 76 149 9.0 12.0 0.00 0.00 0.00 57 1012.7
20260904045502 76 146 8.0 15.0 0.00 0.00 0.00 57 1012.6
20260904044956 76 128 7.0 13.0 0.00 0.00 0.00 58 1012.7
20260904044453 76 151 10.0 14.0 0.00 0.00 0.00 57 1012.7
20260904043949 76 153 13.0 15.0 0.00 0.00 0.00 58 1012.6
20260904043445 76 139 9.0 13.0 0.00 0.00 0.00 58 1012.5
20260904042940 76 141 12.0 15.0 0.00 0.00 0.00 57 1012.8
20260904042437 75 128 9.0 14.0 0.00 0.00 0.00 58 1012.7
20260904041931 75 136 10.0 15.0 0.00 0.00 0.00 58 1012.7
20260904041428 75 123 10.0 20.0 0.00 0.00 0.00 56 1012.8
20260904040924 75 120 9.0 16.0 0.00 0.00 0.00 56 1012.7
20260904040423 75 119 12.0 16.0 0.00 0.00 0.00 58 1012.7
20260904035920 74 122 12.0 14.0 0.00 0.00 0.00 60 1012.8
20260904035415 73 117 12.0 15.0 0.00 0.00 0.00 62 1012.9
20260904034914 74 120 9.0 13.0 0.00 0.00 0.00 62 1012.8
20260904034410 73 123 8.0 11.0 0.00 0.00 0.00 64 1012.8
20260904033905 73 117 5.0 7.0 0.00 0.00 0.00 63 1013.0
20260904033402 73 121 5.0 6.0 0.00 0.00 0.00 61 1012.8
20260904032857 75 121 4.0 6.0 0.00 0.00 0.00 59 1012.8
20260904032352 75 124 8.0 11.0 0.00 0.00 0.00 57 1012.7
20260904031846 75 121 9.0 11.0 0.00 0.00 0.00 57 1012.3
20260904031342 75 123 8.0 11.0 0.00 0.00 0.00 57 1012.3
20260904030838 76 121 9.0 12.0 0.00 0.00 0.00 56 1012.5
20260904030334 75 116 10.0 12.0 0.00 0.00 0.00 56 1012.5
20260904025829 75 118 7.0 9.0 0.00 0.00 0.00 58 1012.2
20260904025325 76 123 8.0 10.0 0.00 0.00 0.00 58 1012.6
20260904024824 76 122 8.0 9.0 0.00 0.00 0.00 57 1012.2
20260904024319 77 119 6.0 9.0 0.00 0.00 0.00 55 1012.2
20260904023816 78 121 10.0 13.0 0.00 0.00 0.00 53 1012.2
20260904023312 79 125 10.0 13.0 0.00 0.00 0.00 50 1012.2
20260904022811 79 130 10.0 11.0 0.00 0.00 0.00 48 1012.2
20260904022308 78 126 7.0 7.0 0.00 0.00 0.00 49 1011.9
20260904021805 79 139 6.0 10.0 0.00 0.00 0.00 47 1011.6
20260904021259 78 150 3.0 5.0 0.00 0.00 0.00 48 1011.6
20260904020754 80 120 11.0 15.0 0.00 0.00 0.00 44 1011.3
20260904020254 80 118 12.0 18.0 0.00 0.00 0.00 43 1011.6
20260904015753 79 135 14.0 16.0 0.00 0.00 0.00 44 1011.3
20260904015248 78 133 10.0 16.0 0.00 0.00 0.00 49 1011.2
20260904014747 78 150 13.0 17.0 0.00 0.00 0.00 50 1011.6
20260904014242 79 142 11.0 20.0 0.00 0.00 0.00 47 1011.6
20260904013738 80 143 17.0 22.0 0.00 0.00 0.00 46 1011.5
20260904013234 79 130 11.0 14.0 0.00 0.00 0.00 47 1011.3
20260904012729 78 142 6.0 12.0 0.00 0.00 0.00 51 1011.7
20260904012229 79 138 9.0 13.0 0.00 0.00 0.00 50 1011.7
20260904011728 78 138 12.0 14.0 0.00 0.00 0.00 51 1011.6
20260904011224 78 127 9.0 12.0 0.00 0.00 0.00 49 1011.6
20260904010718 77 141 13.0 20.0 0.00 0.00 0.00 54 1011.7
20260904010215 77 136 7.0 22.0 0.00 0.00 0.00 58 1011.8
20260904005710 77 129 17.0 25.0 0.00 0.00 0.00 58 1011.8
20260904005206 77 132 16.0 20.0 0.00 0.00 0.00 56 1011.9
20260904004701 78 157 9.0 15.0 0.00 0.00 0.00 56 1011.8
20260904004201 79 179 9.0 20.0 0.00 0.00 0.00 54 1012.3
20260904003651 80 157 11.0 17.0 0.00 0.00 0.00 50 1012.0
20260904003147 79 163 7.0 11.0 0.00 0.00 0.00 52 1012.2
20260904002643 80 141 16.0 22.0 0.00 0.00 0.00 49 1012.1
20260904002138 80 150 7.0 16.0 0.00 0.00 0.00 48 1011.9
20260904001633 79 153 9.0 16.0 0.00 0.00 0.00 52 1011.8
20260904001132 79 136 7.0 15.0 0.00 0.00 0.00 52 1011.7
20260904000627 79 129 11.0 18.0 0.00 0.00 0.00 53 1011.7
20260904000123 80 125 14.0 19.0 0.00 0.00 0.00 52 1011.6
20260903235622 79 115 12.0 16.0 0.00 0.00 0.00 54 1011.5
20260903235119 80 126 12.0 19.0 0.00 0.00 0.00 53 1011.5
20260903234613 80 115 15.0 21.0 0.00 0.00 0.00 52 1011.7
20260903234109 81 125 15.0 22.0 0.00 0.00 0.00 51 1011.5
20260903233605 82 114 16.0 21.0 0.00 0.00 0.00 46 1011.8
20260903233101 82 128 21.0 23.0 0.00 0.00 0.00 47 1011.8